CZ-6A DEB, 54343

Orbit data source: Space-Track

CZ-6A DEB, 54343 is space debris in SSO originally from a launch on Fri, 11 Nov 2022 UTC launched from the Taiyaun Space Center, China (TSC). Debris objects in space refer to the collection of defunct objects orbiting the Earth. Examples of debris include non-operational satellites, rocket bodies, and fragments generated from explosions, collisions, or faulty payload assembly.

Loading next visibility...
Identifier
54343, 2022-151CN
Orbit
SSO
Country
Flag of CNCN / PRC
Related business
Manufacturer
SAST
Mission
Spacecraft
Bus & Motor
Unknown
Mass
Unknown
Launch date (UTC)
2022-11-11 (3 years ago)
Launch vehicle
Unknown
Launch site
Taiyaun Space Center, China (TSC)
Object type
Payload
Rocket body
Debris
Shape & HBR
Unknown shape, 0.1 m
Radar Cross Section
Small (<0.1 m²)

Expand to show TLE details & history
Last TLE update: 9 hours ago

TLE from 9 hours ago
0 CZ-6A DEB
1 54343U 22151CN  25353.93326101  .00000213  00000-0  14219-3 0  9999
2 54343  98.8319 353.0949 0042593 123.5888 236.9360 14.10625875159250
Epoch: 2025-12-19T22:23Z
TLE epoch observation values (Epoch: 2025-12-19T22:23:53.751Z)
Latitude
0.00001°
Longitude
-71.64637°
Altitude
877.037 km
Speed
7.405 km/s
True Right ascension
23h 32m 22s
True Declination
0° 00' 00"
Sunlit
Object was in daylight at epoch
Visualization orbit readout
Latitude
Unknown
Longitude
Unknown
Altitude
Unknown
Speed
Unknown
Apparent Right ascension
Unknown
Apparent Declination
Unknown
Sunlit
N/A
Visualization observer readout
Local Sidereal Time
06:44:57
Azimuth
Unknown
Elevation
Unknown
Doppler factor
Unknown
Orbital elements
Apogee altitude
885.213 km
Perigee altitude
823.602 km
Semi-major axis
7,232.545 km
Eccentricity
0.00426
Inclination
98.8319°
RAAN
353.0949°
Arg. of periapsis
123.5888°
True anomaly
236.52815°
Mean anomaly
236.936°
Eccentric anomaly
236.73195°
Mean motion
3.52863 °/min
Orbital period
102.02 mins
BSTAR
0.00014219
Loading maneuver chart data...
Computing Atmospheric mass density...
Loading historical data...
Loading historical data...
Loading historical data...
Loading historical data...
Loading historical data...
Loading historical data...
Loading historical data...

Documentation

Showing up to 5 results
|